STARLINK-35045

Last updated on Thu Oct 02 2025 00:02:05 GMT+0000 (Coordinated Universal Time)

1 65439U 25194F 25274.51677800 .00091242 00000+0 23100-2 0 9997 2 65439 97.6019 126.8221 0002374 76.5483 283.6027 15.39393650 5650

Satellite not in orbit

STARLINK-35045